Time,TemperatureF,DewpointF,PressureIn,WindDirection,WindDirectionDegrees,WindSpeedMPH,WindSpeedGustMPH,Humidity,HourlyPrecipIn,Conditions,Clouds,dailyrainin,SolarRadiationWatts/m^2,SoftwareType,DateUTC
2013-04-09 00:02:00,68.5,66.7,30.06,ENE,71,0.0,-999.0,94,0.00,,,0.00,0,Wunderground v.1.15,2013-04-09 05:02:00,
2013-04-09 00:08:00,68.5,66.7,30.06,WSW,245,1.0,-999.0,94,0.00,,,0.00,0,Wunderground v.1.15,2013-04-09 05:08:00,
2013-04-09 00:14:00,68.5,66.7,30.06,SE,140,1.0,-999.0,94,0.00,,,0.00,0,Wunderground v.1.15,2013-04-09 05:14:00,
2013-04-09 00:20:00,68.5,66.7,30.06,NNW,328,1.0,-999.0,94,0.00,,,0.00,0,Wunderground v.1.15,2013-04-09 05:20:00,
2013-04-09 00:26:00,68.5,66.7,30.06,SSE,161,1.0,-999.0,94,0.00,,,0.00,0,Wunderground v.1.15,2013-04-09 05:26:00,
2013-04-09 00:32:00,68.5,66.7,30.06,SSE,153,1.0,-999.0,94,0.00,,,0.00,0,Wunderground v.1.15,2013-04-09 05:32:00,
2013-04-09 00:38:00,68.4,66.6,30.05,South,180,1.0,-999.0,94,0.00,,,0.00,0,Wunderground v.1.15,2013-04-09 05:38:00,
2013-04-09 00:44:00,68.5,66.7,30.05,SSW,198,1.0,-999.0,94,0.00,,,0.00,0,Wunderground v.1.15,2013-04-09 05:44:00,
2013-04-09 00:50:00,68.5,66.7,30.05,ESE,109,1.0,-999.0,94,0.00,,,0.00,0,Wunderground v.1.15,2013-04-09 05:50:00,
2013-04-09 00:56:00,68.5,66.7,30.05,SSW,206,1.0,-999.0,94,0.00,,,0.00,0,Wunderground v.1.15,2013-04-09 05:56:00,
2013-04-09 01:02:00,68.5,66.7,30.05,South,177,1.0,-999.0,94,0.00,,,0.00,0,Wunderground v.1.15,2013-04-09 06:02:00,
2013-04-09 01:08:00,68.6,66.8,30.04,ESE,123,1.0,-999.0,94,0.00,,,0.00,0,Wunderground v.1.15,2013-04-09 06:08:00,
2013-04-09 01:14:00,68.6,67.1,30.04,SSE,152,1.0,-999.0,95,0.00,,,0.00,0,Wunderground v.1.15,2013-04-09 06:14:00,
2013-04-09 01:20:00,68.6,67.1,30.04,South,175,0.0,-999.0,95,0.00,,,0.00,0,Wunderground v.1.15,2013-04-09 06:20:00,
2013-04-09 01:26:00,68.5,67.0,30.04,SSE,159,1.0,-999.0,95,0.00,,,0.00,0,Wunderground v.1.15,2013-04-09 06:26:00,
2013-04-09 01:32:00,68.5,67.0,30.04,South,183,1.0,-999.0,95,0.00,,,0.00,0,Wunderground v.1.15,2013-04-09 06:32:00,
2013-04-09 01:38:00,68.5,67.0,30.03,SSE,162,1.0,-999.0,95,0.00,,,0.00,0,Wunderground v.1.15,2013-04-09 06:38:00,
2013-04-09 01:44:00,68.4,66.9,30.03,South,182,1.0,-999.0,95,0.00,,,0.00,0,Wunderground v.1.15,2013-04-09 06:44:00,
2013-04-09 01:50:00,68.4,66.9,30.03,SE,142,0.0,-999.0,95,0.00,,,0.00,0,Wunderground v.1.15,2013-04-09 06:50:00,
2013-04-09 01:56:00,68.4,66.9,30.03,SSE,150,1.0,-999.0,95,0.00,,,0.00,0,Wunderground v.1.15,2013-04-09 06:56:00,
2013-04-09 02:02:00,68.4,66.9,30.02,South,180,1.0,-999.0,95,0.00,,,0.00,0,Wunderground v.1.15,2013-04-09 07:02:00,
2013-04-09 02:08:00,68.4,66.9,30.02,SSE,167,2.0,-999.0,95,0.00,,,0.00,0,Wunderground v.1.15,2013-04-09 07:08:00,
2013-04-09 02:14:00,68.4,66.9,30.02,South,169,1.0,-999.0,95,0.00,,,0.00,0,Wunderground v.1.15,2013-04-09 07:14:00,
2013-04-09 02:20:00,68.5,67.0,30.01,SE,138,1.0,-999.0,95,0.00,,,0.00,0,Wunderground v.1.15,2013-04-09 07:20:00,
2013-04-09 02:26:00,68.5,66.7,30.01,SSE,158,1.0,-999.0,94,0.00,,,0.00,0,Wunderground v.1.15,2013-04-09 07:26:00,
2013-04-09 02:32:00,68.5,66.7,30.01,SSE,153,0.0,-999.0,94,0.00,,,0.00,0,Wunderground v.1.15,2013-04-09 07:32:00,
2013-04-09 02:38:00,68.5,66.7,30.01,South,188,0.0,-999.0,94,0.00,,,0.00,0,Wunderground v.1.15,2013-04-09 07:38:00,
2013-04-09 02:44:00,68.6,66.8,30.00,South,191,1.0,-999.0,94,0.00,,,0.00,0,Wunderground v.1.15,2013-04-09 07:44:00,
2013-04-09 02:50:00,68.6,66.8,30.00,SSE,153,1.0,-999.0,94,0.00,,,0.00,0,Wunderground v.1.15,2013-04-09 07:50:00,
2013-04-09 02:56:00,68.6,66.8,30.00,SE,144,1.0,-999.0,94,0.00,,,0.00,0,Wunderground v.1.15,2013-04-09 07:56:00,
2013-04-09 03:02:00,68.6,66.8,30.00,South,180,1.0,-999.0,94,0.00,,,0.00,0,Wunderground v.1.15,2013-04-09 08:02:00,
2013-04-09 03:08:00,68.6,66.8,30.00,SE,146,0.0,-999.0,94,0.00,,,0.00,0,Wunderground v.1.15,2013-04-09 08:08:00,
2013-04-09 03:14:00,68.7,66.9,30.00,South,175,1.0,-999.0,94,0.00,,,0.00,0,Wunderground v.1.15,2013-04-09 08:14:00,
2013-04-09 03:20:00,68.7,66.9,30.00,SSE,159,1.0,-999.0,94,0.00,,,0.00,0,Wunderground v.1.15,2013-04-09 08:20:00,
2013-04-09 03:26:00,68.6,66.8,30.00,SE,146,1.0,-999.0,94,0.00,,,0.00,0,Wunderground v.1.15,2013-04-09 08:26:00,
2013-04-09 03:32:00,68.6,66.8,29.99,SE,137,0.0,-999.0,94,0.00,,,0.00,0,Wunderground v.1.15,2013-04-09 08:32:00,
2013-04-09 03:38:00,68.6,66.8,29.99,SE,131,0.0,-999.0,94,0.00,,,0.00,0,Wunderground v.1.15,2013-04-09 08:38:00,
2013-04-09 03:44:00,68.5,66.7,29.99,South,169,0.0,-999.0,94,0.00,,,0.00,0,Wunderground v.1.15,2013-04-09 08:44:00,
2013-04-09 03:50:00,68.5,66.7,29.99,SE,146,0.0,-999.0,94,0.00,,,0.00,0,Wunderground v.1.15,2013-04-09 08:50:00,
2013-04-09 03:56:00,68.5,66.7,29.99,SSE,155,1.0,-999.0,94,0.00,,,0.00,0,Wunderground v.1.15,2013-04-09 08:56:00,
2013-04-09 04:02:00,68.5,66.7,29.99,South,178,1.0,-999.0,94,0.00,,,0.00,0,Wunderground v.1.15,2013-04-09 09:02:00,
2013-04-09 04:08:00,68.5,66.7,29.99,South,182,1.0,-999.0,94,0.00,,,0.00,0,Wunderground v.1.15,2013-04-09 09:08:00,
2013-04-09 04:14:00,68.5,66.7,30.00,SSE,148,1.0,-999.0,94,0.00,,,0.00,0,Wunderground v.1.15,2013-04-09 09:14:00,
2013-04-09 04:20:00,68.6,66.8,29.99,SSE,148,1.0,-999.0,94,0.00,,,0.00,0,Wunderground v.1.15,2013-04-09 09:20:00,
2013-04-09 04:26:00,68.7,66.9,30.00,SSE,148,0.0,-999.0,94,0.00,,,0.00,0,Wunderground v.1.15,2013-04-09 09:26:00,
2013-04-09 04:32:00,68.8,67.0,30.00,SSE,148,1.0,-999.0,94,0.00,,,0.00,0,Wunderground v.1.15,2013-04-09 09:32:00,
2013-04-09 04:38:00,68.8,67.0,29.99,East,100,1.0,-999.0,94,0.00,,,0.00,0,Wunderground v.1.15,2013-04-09 09:38:00,
2013-04-09 04:44:00,68.8,67.0,29.99,SSE,165,1.0,-999.0,94,0.00,,,0.00,0,Wunderground v.1.15,2013-04-09 09:44:00,
2013-04-09 04:50:00,68.8,67.0,29.99,SE,132,1.0,-999.0,94,0.00,,,0.00,0,Wunderground v.1.15,2013-04-09 09:50:00,
2013-04-09 04:56:00,68.8,67.0,30.00,SSE,158,1.0,-999.0,94,0.00,,,0.00,0,Wunderground v.1.15,2013-04-09 09:56:00,
2013-04-09 05:02:00,68.8,67.0,30.00,South,178,1.0,-999.0,94,0.00,,,0.00,0,Wunderground v.1.15,2013-04-09 10:02:00,
2013-04-09 05:08:00,68.8,67.0,30.00,ESE,119,0.0,-999.0,94,0.00,,,0.00,0,Wunderground v.1.15,2013-04-09 10:08:00,
2013-04-09 05:14:00,68.8,67.0,30.01,SSE,150,0.0,-999.0,94,0.00,,,0.00,0,Wunderground v.1.15,2013-04-09 10:14:00,
2013-04-09 05:20:00,68.8,67.0,30.01,South,188,0.0,-999.0,94,0.00,,,0.00,0,Wunderground v.1.15,2013-04-09 10:20:00,
2013-04-09 05:26:00,68.8,67.0,30.01,South,171,0.0,-999.0,94,0.00,,,0.00,0,Wunderground v.1.15,2013-04-09 10:26:00,
2013-04-09 05:32:00,68.7,66.9,30.01,SSE,156,0.0,-999.0,94,0.00,,,0.00,0,Wunderground v.1.15,2013-04-09 10:32:00,
2013-04-09 05:38:00,68.6,66.8,30.02,SE,142,0.0,-999.0,94,0.00,,,0.00,0,Wunderground v.1.15,2013-04-09 10:38:00,
2013-04-09 05:44:00,68.6,66.8,30.02,SSE,153,0.0,-999.0,94,0.00,,,0.00,0,Wunderground v.1.15,2013-04-09 10:44:00,
2013-04-09 05:50:00,68.6,66.8,30.02,SSE,149,0.0,-999.0,94,0.00,,,0.00,0,Wunderground v.1.15,2013-04-09 10:50:00,
2013-04-09 05:56:00,68.6,66.8,30.02,SE,125,1.0,-999.0,94,0.00,,,0.00,0,Wunderground v.1.15,2013-04-09 10:56:00,
2013-04-09 06:02:00,68.6,66.8,30.03,SE,138,0.0,-999.0,94,0.00,,,0.00,0,Wunderground v.1.15,2013-04-09 11:02:00,
2013-04-09 06:08:00,68.5,66.7,30.03,ESE,105,0.0,-999.0,94,0.00,,,0.00,0,Wunderground v.1.15,2013-04-09 11:08:00,
2013-04-09 06:14:00,68.5,66.7,30.03,SSW,194,0.0,-999.0,94,0.00,,,0.00,0,Wunderground v.1.15,2013-04-09 11:14:00,
2013-04-09 06:20:00,68.4,66.6,30.03,SE,132,0.0,-999.0,94,0.00,,,0.00,0,Wunderground v.1.15,2013-04-09 11:20:00,
2013-04-09 06:26:00,68.3,66.5,30.03,South,180,1.0,-999.0,94,0.00,,,0.00,0,Wunderground v.1.15,2013-04-09 11:26:00,
2013-04-09 06:32:00,68.3,66.5,30.03,SE,130,1.0,-999.0,94,0.00,,,0.00,11,Wunderground v.1.15,2013-04-09 11:32:00,
2013-04-09 06:38:00,68.3,66.5,30.03,SE,146,1.0,-999.0,94,0.00,,,0.00,18,Wunderground v.1.15,2013-04-09 11:38:00,
2013-04-09 06:44:00,68.2,66.4,30.04,SSE,153,1.0,-999.0,94,0.00,,,0.00,14,Wunderground v.1.15,2013-04-09 11:44:00,
2013-04-09 06:50:00,68.1,66.3,30.04,South,171,1.0,-999.0,94,0.00,,,0.00,12,Wunderground v.1.15,2013-04-09 11:50:00,
2013-04-09 06:56:00,68.1,66.3,30.04,SE,141,1.0,-999.0,94,0.00,,,0.00,18,Wunderground v.1.15,2013-04-09 11:56:00,
2013-04-09 07:02:00,68.0,66.2,30.04,SSE,162,1.0,-999.0,94,0.00,,,0.00,21,Wunderground v.1.15,2013-04-09 12:02:00,
2013-04-09 07:08:00,68.1,66.3,30.04,East,101,1.0,-999.0,94,0.00,,,0.00,25,Wunderground v.1.15,2013-04-09 12:08:00,
2013-04-09 07:14:00,68.1,66.3,30.05,ESE,115,1.0,-999.0,94,0.00,,,0.00,28,Wunderground v.1.15,2013-04-09 12:14:00,
2013-04-09 07:20:00,68.2,66.4,30.05,SE,136,1.0,-999.0,94,0.00,,,0.00,33,Wunderground v.1.15,2013-04-09 12:20:00,
2013-04-09 07:26:00,68.3,66.5,30.05,ENE,59,1.0,-999.0,94,0.00,,,0.00,37,Wunderground v.1.15,2013-04-09 12:26:00,
2013-04-09 07:32:00,68.3,66.2,30.06,South,182,1.0,-999.0,93,0.00,,,0.00,40,Wunderground v.1.15,2013-04-09 12:32:00,
2013-04-09 07:38:00,68.4,66.3,30.06,South,174,1.0,-999.0,93,0.00,,,0.00,90,Wunderground v.1.15,2013-04-09 12:38:00,
2013-04-09 07:44:00,68.6,66.5,30.06,ESE,111,1.0,-999.0,93,0.00,,,0.00,53,Wunderground v.1.15,2013-04-09 12:44:00,
2013-04-09 07:50:00,68.8,66.7,30.06,South,186,2.0,-999.0,93,0.00,,,0.00,125,Wunderground v.1.15,2013-04-09 12:50:00,
2013-04-09 07:56:00,69.1,66.7,30.06,SW,224,2.0,-999.0,92,0.00,,,0.00,111,Wunderground v.1.15,2013-04-09 12:56:00,
2013-04-09 08:02:00,69.2,66.5,30.06,ESE,121,2.0,-999.0,91,0.00,,,0.00,135,Wunderground v.1.15,2013-04-09 13:02:00,
2013-04-09 08:08:00,69.4,66.3,30.06,SSW,203,2.0,-999.0,90,0.00,,,0.00,70,Wunderground v.1.15,2013-04-09 13:08:00,
2013-04-09 08:14:00,69.6,66.2,30.07,SE,140,2.0,-999.0,89,0.00,,,0.00,69,Wunderground v.1.15,2013-04-09 13:14:00,
2013-04-09 08:20:00,69.7,66.3,30.07,SSE,157,1.0,-999.0,89,0.00,,,0.00,77,Wunderground v.1.15,2013-04-09 13:20:00,
2013-04-09 08:26:00,70.0,66.3,30.07,ESE,115,1.0,-999.0,88,0.00,,,0.00,100,Wunderground v.1.15,2013-04-09 13:26:00,
2013-04-09 08:32:00,70.2,66.5,30.07,ESE,104,1.0,-999.0,88,0.00,,,0.00,91,Wunderground v.1.15,2013-04-09 13:32:00,
2013-04-09 08:38:00,70.4,66.3,30.07,SE,134,2.0,-999.0,87,0.00,,,0.00,104,Wunderground v.1.15,2013-04-09 13:38:00,
2013-04-09 08:44:00,70.8,66.4,30.07,South,172,2.0,-999.0,86,0.00,,,0.00,123,Wunderground v.1.15,2013-04-09 13:44:00,
2013-04-09 08:50:00,71.0,66.6,30.07,WSW,238,1.0,-999.0,86,0.00,,,0.00,137,Wunderground v.1.15,2013-04-09 13:50:00,
2013-04-09 08:56:00,71.1,66.4,30.08,SW,228,2.0,-999.0,85,0.00,,,0.00,74,Wunderground v.1.15,2013-04-09 13:56:00,
2013-04-09 09:02:00,71.2,66.1,30.08,ENE,68,2.0,-999.0,84,0.00,,,0.00,137,Wunderground v.1.15,2013-04-09 14:02:00,
2013-04-09 09:08:00,71.5,66.4,30.08,South,173,1.0,-999.0,84,0.00,,,0.00,218,Wunderground v.1.15,2013-04-09 14:08:00,
2013-04-09 09:14:00,71.9,66.5,30.08,South,177,2.0,-999.0,83,0.00,,,0.00,338,Wunderground v.1.15,2013-04-09 14:14:00,
2013-04-09 09:20:00,72.4,66.6,30.08,ESE,111,2.0,-999.0,82,0.00,,,0.00,554,Wunderground v.1.15,2013-04-09 14:20:00,
2013-04-09 09:26:00,73.1,66.9,30.08,SE,125,2.0,-999.0,81,0.00,,,0.00,575,Wunderground v.1.15,2013-04-09 14:26:00,
2013-04-09 09:32:00,73.7,66.8,30.08,East,93,2.0,-999.0,79,0.00,,,0.00,598,Wunderground v.1.15,2013-04-09 14:32:00,
2013-04-09 09:38:00,74.2,66.9,30.08,South,175,2.0,-999.0,78,0.00,,,0.00,622,Wunderground v.1.15,2013-04-09 14:38:00,
2013-04-09 09:44:00,74.6,66.5,30.09,ESE,107,2.0,-999.0,76,0.00,,,0.00,642,Wunderground v.1.15,2013-04-09 14:44:00,
2013-04-09 09:50:00,75.1,66.6,30.09,East,82,2.0,-999.0,75,0.00,,,0.00,661,Wunderground v.1.15,2013-04-09 14:50:00,
2013-04-09 09:56:00,75.6,66.7,30.10,SSW,201,2.0,-999.0,74,0.00,,,0.00,680,Wunderground v.1.15,2013-04-09 14:56:00,
2013-04-09 10:02:00,76.0,66.7,30.10,SSE,149,1.0,-999.0,73,0.00,,,0.00,700,Wunderground v.1.15,2013-04-09 15:02:00,
2013-04-09 10:08:00,76.4,66.7,30.10,NE,46,2.0,-999.0,72,0.00,,,0.00,715,Wunderground v.1.15,2013-04-09 15:08:00,
2013-04-09 10:14:00,76.5,66.4,30.11,South,188,3.0,-999.0,71,0.00,,,0.00,735,Wunderground v.1.15,2013-04-09 15:14:00,
2013-04-09 10:20:00,76.7,66.6,30.11,ESE,123,3.0,-999.0,71,0.00,,,0.00,749,Wunderground v.1.15,2013-04-09 15:20:00,
2013-04-09 10:26:00,77.2,67.1,30.11,South,190,2.0,-999.0,71,0.00,,,0.00,766,Wunderground v.1.15,2013-04-09 15:26:00,
2013-04-09 10:32:00,77.6,67.0,30.11,NE,38,2.0,-999.0,70,0.00,,,0.00,780,Wunderground v.1.15,2013-04-09 15:32:00,
2013-04-09 10:38:00,77.7,66.7,30.11,South,178,2.0,-999.0,69,0.00,,,0.00,798,Wunderground v.1.15,2013-04-09 15:38:00,
2013-04-09 10:44:00,77.8,66.8,30.11,South,179,2.0,-999.0,69,0.00,,,0.00,812,Wunderground v.1.15,2013-04-09 15:44:00,
2013-04-09 10:50:00,77.9,66.5,30.12,SSW,196,2.0,-999.0,68,0.00,,,0.00,826,Wunderground v.1.15,2013-04-09 15:50:00,
2013-04-09 10:56:00,78.1,66.7,30.12,SSE,157,2.0,-999.0,68,0.00,,,0.00,737,Wunderground v.1.15,2013-04-09 15:56:00,
2013-04-09 11:02:00,78.1,66.7,30.12,SE,142,3.0,-999.0,68,0.00,,,0.00,838,Wunderground v.1.15,2013-04-09 16:02:00,
2013-04-09 11:08:00,78.3,66.9,30.12,SSW,206,3.0,-999.0,68,0.00,,,0.00,809,Wunderground v.1.15,2013-04-09 16:08:00,
2013-04-09 11:14:00,78.6,66.7,30.12,ENE,60,2.0,-999.0,67,0.00,,,0.00,668,Wunderground v.1.15,2013-04-09 16:14:00,
2013-04-09 11:20:00,78.8,67.3,30.12,SE,146,2.0,-999.0,68,0.00,,,0.00,919,Wunderground v.1.15,2013-04-09 16:20:00,
2013-04-09 11:26:00,79.5,67.1,30.12,SE,126,2.0,-999.0,66,0.00,,,0.00,738,Wunderground v.1.15,2013-04-09 16:26:00,
2013-04-09 11:32:00,79.3,67.4,30.12,SSW,195,2.0,-999.0,67,0.00,,,0.00,846,Wunderground v.1.15,2013-04-09 16:32:00,
2013-04-09 11:38:00,79.3,67.0,30.12,SSE,159,2.0,-999.0,66,0.00,,,0.00,710,Wunderground v.1.15,2013-04-09 16:38:00,
2013-04-09 11:45:00,79.2,66.9,30.13,SSE,157,2.0,-999.0,66,0.00,,,0.00,879,Wunderground v.1.15,2013-04-09 16:45:00,
2013-04-09 11:50:00,79.0,66.7,30.13,SW,222,3.0,-999.0,66,0.00,,,0.00,912,Wunderground v.1.15,2013-04-09 16:50:00,
2013-04-09 11:56:00,79.2,67.3,30.13,SSW,199,3.0,-999.0,67,0.00,,,0.00,773,Wunderground v.1.15,2013-04-09 16:56:00,
2013-04-09 12:02:00,79.0,67.1,30.13,NE,45,3.0,-999.0,67,0.00,,,0.00,773,Wunderground v.1.15,2013-04-09 17:02:00,
2013-04-09 12:08:00,78.8,66.9,30.13,ESE,118,3.0,-999.0,67,0.00,,,0.00,775,Wunderground v.1.15,2013-04-09 17:08:00,
2013-04-09 12:14:00,78.7,66.4,30.13,SSE,159,2.0,-999.0,66,0.00,,,0.00,698,Wunderground v.1.15,2013-04-09 17:14:00,
2013-04-09 12:20:00,79.2,67.7,30.12,ESE,121,2.0,-999.0,68,0.00,,,0.00,976,Wunderground v.1.15,2013-04-09 17:20:00,
2013-04-09 12:26:00,80.0,67.6,30.12,SE,144,2.0,-999.0,66,0.00,,,0.00,965,Wunderground v.1.15,2013-04-09 17:26:00,
2013-04-09 12:32:00,80.1,67.3,30.12,SSW,194,2.0,-999.0,65,0.00,,,0.00,965,Wunderground v.1.15,2013-04-09 17:32:00,
2013-04-09 12:38:00,80.3,67.5,30.12,SE,146,2.0,-999.0,65,0.00,,,0.00,960,Wunderground v.1.15,2013-04-09 17:38:00,
2013-04-09 12:44:00,80.7,67.8,30.12,SE,130,2.0,-999.0,65,0.00,,,0.00,967,Wunderground v.1.15,2013-04-09 17:44:00,
2013-04-09 12:50:00,81.2,67.9,30.12,ENE,75,2.0,-999.0,64,0.00,,,0.00,988,Wunderground v.1.15,2013-04-09 17:50:00,
2013-04-09 12:56:00,81.0,67.7,30.12,SE,146,3.0,-999.0,64,0.00,,,0.00,976,Wunderground v.1.15,2013-04-09 17:56:00,
2013-04-09 13:02:00,80.8,67.9,30.12,SE,138,3.0,-999.0,65,0.00,,,0.00,967,Wunderground v.1.15,2013-04-09 18:02:00,
2013-04-09 13:08:00,81.2,67.9,30.12,ESE,123,2.0,-999.0,64,0.00,,,0.00,974,Wunderground v.1.15,2013-04-09 18:08:00,
2013-04-09 13:14:00,81.0,68.1,30.12,SW,219,3.0,-999.0,65,0.00,,,0.00,816,Wunderground v.1.15,2013-04-09 18:14:00,
2013-04-09 13:20:00,80.7,68.3,30.11,South,171,2.0,-999.0,66,0.00,,,0.00,468,Wunderground v.1.15,2013-04-09 18:20:00,
2013-04-09 13:26:00,80.9,68.5,30.11,SE,135,2.0,-999.0,66,0.00,,,0.00,775,Wunderground v.1.15,2013-04-09 18:26:00,
2013-04-09 13:32:00,80.7,68.3,30.11,South,180,2.0,-999.0,66,0.00,,,0.00,599,Wunderground v.1.15,2013-04-09 18:32:00,
2013-04-09 13:38:00,80.5,68.5,30.11,SW,232,2.0,-999.0,67,0.00,,,0.00,698,Wunderground v.1.15,2013-04-09 18:38:00,
2013-04-09 13:44:00,80.5,68.5,30.11,SSE,154,2.0,-999.0,67,0.00,,,0.00,1171,Wunderground v.1.15,2013-04-09 18:44:00,
2013-04-09 13:50:00,80.9,68.9,30.11,SSW,201,3.0,-999.0,67,0.00,,,0.00,940,Wunderground v.1.15,2013-04-09 18:50:00,
2013-04-09 13:56:00,80.8,69.2,30.11,West,263,3.0,-999.0,68,0.00,,,0.00,1020,Wunderground v.1.15,2013-04-09 18:56:00,
2013-04-09 14:02:00,80.6,68.6,30.10,SE,139,2.0,-999.0,67,0.00,,,0.00,448,Wunderground v.1.15,2013-04-09 19:02:00,
2013-04-09 14:08:00,79.6,68.5,30.10,SE,130,3.0,-999.0,69,0.00,,,0.00,439,Wunderground v.1.15,2013-04-09 19:08:00,
2013-04-09 14:14:00,79.0,68.4,30.10,South,190,3.0,-999.0,70,0.00,,,0.00,323,Wunderground v.1.15,2013-04-09 19:14:00,
2013-04-09 14:20:00,78.4,68.6,30.10,SE,133,2.0,-999.0,72,0.00,,,0.00,323,Wunderground v.1.15,2013-04-09 19:20:00,
2013-04-09 14:26:00,78.0,68.6,30.10,SSW,211,2.0,-999.0,73,0.00,,,0.00,343,Wunderground v.1.15,2013-04-09 19:26:00,
2013-04-09 14:32:00,77.7,68.7,30.10,ESE,117,2.0,-999.0,74,0.00,,,0.00,638,Wunderground v.1.15,2013-04-09 19:32:00,
2013-04-09 14:38:00,77.9,68.9,30.10,SSE,165,2.0,-999.0,74,0.00,,,0.00,373,Wunderground v.1.15,2013-04-09 19:38:00,
2013-04-09 14:44:00,77.7,68.7,30.10,East,96,3.0,-999.0,74,0.00,,,0.00,352,Wunderground v.1.15,2013-04-09 19:44:00,
2013-04-09 14:50:00,77.5,68.9,30.10,WSW,238,2.0,-999.0,75,0.00,,,0.00,373,Wunderground v.1.15,2013-04-09 19:50:00,
2013-04-09 14:56:00,77.5,68.9,30.10,SE,128,1.0,-999.0,75,0.00,,,0.00,306,Wunderground v.1.15,2013-04-09 19:56:00,
2013-04-09 15:02:00,77.4,68.9,30.10,West,263,1.0,-999.0,75,0.00,,,0.00,480,Wunderground v.1.15,2013-04-09 20:02:00,
2013-04-09 15:08:00,77.5,68.9,30.10,South,169,1.0,-999.0,75,0.00,,,0.00,327,Wunderground v.1.15,2013-04-09 20:08:00,
2013-04-09 15:14:00,77.4,68.9,30.10,SSW,202,1.0,-999.0,75,0.00,,,0.00,285,Wunderground v.1.15,2013-04-09 20:14:00,
2013-04-09 15:20:00,77.2,69.0,30.10,SE,145,1.0,-999.0,76,0.00,,,0.00,264,Wunderground v.1.15,2013-04-09 20:20:00,
2013-04-09 15:26:00,77.0,68.9,30.09,SSW,204,1.0,-999.0,76,0.00,,,0.00,301,Wunderground v.1.15,2013-04-09 20:26:00,
2013-04-09 15:32:00,76.8,68.7,30.09,East,94,1.0,-999.0,76,0.00,,,0.00,315,Wunderground v.1.15,2013-04-09 20:32:00,
2013-04-09 15:38:00,76.6,68.5,30.09,SE,125,1.0,-999.0,76,0.00,,,0.00,304,Wunderground v.1.15,2013-04-09 20:38:00,
2013-04-09 15:44:00,76.6,68.8,30.09,ESE,106,1.0,-999.0,77,0.00,,,0.00,311,Wunderground v.1.15,2013-04-09 20:44:00,
2013-04-09 15:50:00,76.7,68.9,30.08,ESE,107,1.0,-999.0,77,0.00,,,0.00,844,Wunderground v.1.15,2013-04-09 20:50:00,
2013-04-09 15:56:00,76.9,69.1,30.08,NNE,17,1.0,-999.0,77,0.00,,,0.00,339,Wunderground v.1.15,2013-04-09 20:56:00,
2013-04-09 16:02:00,76.9,68.8,30.08,WNW,294,1.0,-999.0,76,0.00,,,0.00,260,Wunderground v.1.15,2013-04-09 21:02:00,
2013-04-09 16:08:00,76.8,68.7,30.08,East,84,1.0,-999.0,76,0.00,,,0.00,257,Wunderground v.1.15,2013-04-09 21:08:00,
2013-04-09 16:14:00,76.6,68.8,30.08,SE,138,1.0,-999.0,77,0.00,,,0.00,754,Wunderground v.1.15,2013-04-09 21:14:00,
2013-04-09 16:20:00,76.7,68.9,30.08,WSW,257,2.0,-999.0,77,0.00,,,0.00,309,Wunderground v.1.15,2013-04-09 21:20:00,
2013-04-09 16:26:00,76.8,69.0,30.07,SE,130,2.0,-999.0,77,0.00,,,0.00,666,Wunderground v.1.15,2013-04-09 21:26:00,
2013-04-09 16:32:00,76.9,68.8,30.07,SSE,165,2.0,-999.0,76,0.00,,,0.00,230,Wunderground v.1.15,2013-04-09 21:32:00,
2013-04-09 16:38:00,76.5,68.7,30.07,South,178,1.0,-999.0,77,0.00,,,0.00,213,Wunderground v.1.15,2013-04-09 21:38:00,
2013-04-09 16:44:00,76.5,68.7,30.08,SE,136,1.0,-999.0,77,0.00,,,0.00,403,Wunderground v.1.15,2013-04-09 21:44:00,
2013-04-09 16:50:00,76.4,68.7,30.08,ENE,78,2.0,-999.0,77,0.00,,,0.00,288,Wunderground v.1.15,2013-04-09 21:50:00,
2013-04-09 16:56:00,76.4,68.7,30.07,East,96,2.0,-999.0,77,0.00,,,0.00,329,Wunderground v.1.15,2013-04-09 21:56:00,
2013-04-09 17:02:00,76.3,68.6,30.07,ESE,123,2.0,-999.0,77,0.00,,,0.00,174,Wunderground v.1.15,2013-04-09 22:02:00,
2013-04-09 17:08:00,76.0,68.6,30.07,South,173,2.0,-999.0,78,0.00,,,0.00,253,Wunderground v.1.15,2013-04-09 22:08:00,
2013-04-09 17:14:00,75.7,68.4,30.07,NE,46,3.0,-999.0,78,0.00,,,0.00,262,Wunderground v.1.15,2013-04-09 22:14:00,
2013-04-09 17:20:00,75.4,68.1,30.07,South,190,3.0,-999.0,78,0.00,,,0.00,199,Wunderground v.1.15,2013-04-09 22:20:00,
2013-04-09 17:26:00,75.0,68.0,30.08,North,5,2.0,-999.0,79,0.00,,,0.00,102,Wunderground v.1.15,2013-04-09 22:26:00,
2013-04-09 17:32:00,74.7,68.1,30.08,SE,139,1.0,-999.0,80,0.00,,,0.00,102,Wunderground v.1.15,2013-04-09 22:32:00,
2013-04-09 17:38:00,74.4,67.8,30.08,SSW,192,1.0,-999.0,80,0.00,,,0.00,105,Wunderground v.1.15,2013-04-09 22:38:00,
2013-04-09 17:44:00,74.2,68.0,30.08,SSW,192,1.0,-999.0,81,0.00,,,0.00,93,Wunderground v.1.15,2013-04-09 22:44:00,
2013-04-09 17:50:00,73.9,67.7,30.08,SE,129,1.0,-999.0,81,0.00,,,0.00,72,Wunderground v.1.15,2013-04-09 22:50:00,
2013-04-09 17:56:00,73.7,67.9,30.08,East,94,1.0,-999.0,82,0.00,,,0.00,69,Wunderground v.1.15,2013-04-09 22:56:00,
2013-04-09 18:02:00,73.5,67.7,30.08,ESE,109,1.0,-999.0,82,0.00,,,0.00,54,Wunderground v.1.15,2013-04-09 23:02:00,
2013-04-09 18:08:00,73.2,67.7,30.08,SE,132,1.0,-999.0,83,0.00,,,0.00,58,Wunderground v.1.15,2013-04-09 23:08:00,
2013-04-09 18:14:00,73.0,67.5,30.08,South,178,1.0,-999.0,83,0.00,,,0.00,58,Wunderground v.1.15,2013-04-09 23:14:00,
2013-04-09 18:20:00,72.9,67.4,30.08,ESE,119,1.0,-999.0,83,0.00,,,0.00,40,Wunderground v.1.15,2013-04-09 23:20:00,
2013-04-09 18:26:00,72.8,67.3,30.08,SSE,167,1.0,-999.0,83,0.00,,,0.00,33,Wunderground v.1.15,2013-04-09 23:26:00,
2013-04-09 18:32:00,72.5,67.4,30.08,SE,136,1.0,-999.0,84,0.00,,,0.00,35,Wunderground v.1.15,2013-04-09 23:32:00,
2013-04-09 18:38:00,72.3,67.2,30.08,SE,138,1.0,-999.0,84,0.00,,,0.00,25,Wunderground v.1.15,2013-04-09 23:38:00,
2013-04-09 18:44:00,72.2,67.4,30.08,SSE,162,1.0,-999.0,85,0.00,,,0.00,25,Wunderground v.1.15,2013-04-09 23:44:00,
2013-04-09 18:50:00,72.0,67.2,30.08,North,5,1.0,-999.0,85,0.00,,,0.00,19,Wunderground v.1.15,2013-04-09 23:50:00,
2013-04-09 18:56:00,71.9,67.5,30.08,East,92,1.0,-999.0,86,0.00,,,0.00,11,Wunderground v.1.15,2013-04-09 23:56:00,
2013-04-09 19:02:00,71.7,67.3,30.08,SW,220,1.0,-999.0,86,0.00,,,0.00,7,Wunderground v.1.15,2013-04-10 00:02:00,
2013-04-09 19:08:00,71.5,67.1,30.08,WSW,254,1.0,-999.0,86,0.00,,,0.00,0,Wunderground v.1.15,2013-04-10 00:08:00,
2013-04-09 19:14:00,71.3,67.2,30.08,SSE,147,1.0,-999.0,87,0.00,,,0.00,0,Wunderground v.1.15,2013-04-10 00:14:00,
2013-04-09 19:20:00,71.2,67.1,30.08,South,176,1.0,-999.0,87,0.00,,,0.00,0,Wunderground v.1.15,2013-04-10 00:20:00,
2013-04-09 19:26:00,71.1,67.0,30.08,SSE,167,1.0,-999.0,87,0.00,,,0.00,0,Wunderground v.1.15,2013-04-10 00:26:00,
2013-04-09 19:32:00,70.9,66.8,30.08,South,190,1.0,-999.0,87,0.00,,,0.00,0,Wunderground v.1.15,2013-04-10 00:32:00,
2013-04-09 19:38:00,70.8,66.7,30.08,SSE,168,1.0,-999.0,87,0.00,,,0.00,0,Wunderground v.1.15,2013-04-10 00:38:00,
2013-04-09 19:44:00,70.8,67.1,30.08,SSE,162,1.0,-999.0,88,0.00,,,0.00,0,Wunderground v.1.15,2013-04-10 00:44:00,
2013-04-09 19:50:00,70.7,67.0,30.09,ESE,115,1.0,-999.0,88,0.00,,,0.00,0,Wunderground v.1.15,2013-04-10 00:50:00,
2013-04-09 19:56:00,70.6,66.9,30.08,ESE,102,0.0,-999.0,88,0.00,,,0.00,0,Wunderground v.1.15,2013-04-10 00:56:00,
2013-04-09 20:02:00,70.6,66.9,30.09,SSE,164,0.0,-999.0,88,0.00,,,0.00,0,Wunderground v.1.15,2013-04-10 01:02:00,
2013-04-09 20:08:00,70.5,66.8,30.09,South,171,0.0,-999.0,88,0.00,,,0.00,0,Wunderground v.1.15,2013-04-10 01:08:00,
2013-04-09 20:14:00,70.4,66.7,30.08,South,169,0.0,-999.0,88,0.00,,,0.00,0,Wunderground v.1.15,2013-04-10 01:14:00,
2013-04-09 20:20:00,70.2,66.5,30.08,SSE,153,1.0,-999.0,88,0.00,,,0.00,0,Wunderground v.1.15,2013-04-10 01:20:00,
2013-04-09 20:26:00,70.1,66.4,30.09,SE,130,1.0,-999.0,88,0.00,,,0.00,0,Wunderground v.1.15,2013-04-10 01:26:00,
2013-04-09 20:32:00,69.9,66.5,30.09,SE,146,1.0,-999.0,89,0.00,,,0.00,0,Wunderground v.1.15,2013-04-10 01:32:00,
2013-04-09 20:38:00,69.8,66.4,30.09,ESE,113,1.0,-999.0,89,0.00,,,0.00,0,Wunderground v.1.15,2013-04-10 01:38:00,
2013-04-09 20:44:00,69.7,66.3,30.09,SE,141,1.0,-999.0,89,0.00,,,0.00,0,Wunderground v.1.15,2013-04-10 01:44:00,
2013-04-09 20:50:00,69.7,66.3,30.09,SSE,155,0.0,-999.0,89,0.00,,,0.00,0,Wunderground v.1.15,2013-04-10 01:50:00,
2013-04-09 20:56:00,69.5,66.1,30.09,ESE,123,1.0,-999.0,89,0.00,,,0.00,0,Wunderground v.1.15,2013-04-10 01:56:00,
2013-04-09 21:02:00,69.5,66.1,30.09,South,179,1.0,-999.0,89,0.00,,,0.00,0,Wunderground v.1.15,2013-04-10 02:02:00,
2013-04-09 21:08:00,69.4,66.0,30.09,SE,138,1.0,-999.0,89,0.00,,,0.00,0,Wunderground v.1.15,2013-04-10 02:08:00,
2013-04-09 21:14:00,69.2,65.8,30.09,SSW,203,1.0,-999.0,89,0.00,,,0.00,0,Wunderground v.1.15,2013-04-10 02:14:00,
2013-04-09 21:20:00,69.0,65.3,30.09,SE,146,1.0,-999.0,88,0.00,,,0.00,0,Wunderground v.1.15,2013-04-10 02:20:00,
2013-04-09 21:26:00,69.0,65.0,30.09,SE,136,1.0,-999.0,87,0.00,,,0.00,0,Wunderground v.1.15,2013-04-10 02:26:00,
2013-04-09 21:32:00,69.2,65.2,30.09,South,178,1.0,-999.0,87,0.00,,,0.00,0,Wunderground v.1.15,2013-04-10 02:32:00,
2013-04-09 21:38:00,69.2,65.2,30.09,ESE,123,1.0,-999.0,87,0.00,,,0.00,0,Wunderground v.1.15,2013-04-10 02:38:00,
2013-04-09 21:44:00,69.2,65.2,30.10,NE,51,1.0,-999.0,87,0.00,,,0.00,0,Wunderground v.1.15,2013-04-10 02:44:00,
2013-04-09 21:50:00,69.2,65.2,30.09,SSW,194,1.0,-999.0,87,0.00,,,0.00,0,Wunderground v.1.15,2013-04-10 02:50:00,
2013-04-09 21:56:00,69.2,65.2,30.09,SE,128,1.0,-999.0,87,0.00,,,0.00,0,Wunderground v.1.15,2013-04-10 02:56:00,
2013-04-09 22:02:00,69.2,65.2,30.09,South,182,1.0,-999.0,87,0.00,,,0.00,0,Wunderground v.1.15,2013-04-10 03:02:00,
2013-04-09 22:08:00,69.2,65.2,30.09,SE,143,0.0,-999.0,87,0.00,,,0.00,0,Wunderground v.1.15,2013-04-10 03:08:00,
2013-04-09 22:14:00,69.1,65.1,30.09,South,173,0.0,-999.0,87,0.00,,,0.00,0,Wunderground v.1.15,2013-04-10 03:14:00,
2013-04-09 22:20:00,69.1,65.1,30.09,SSW,196,1.0,-999.0,87,0.00,,,0.00,0,Wunderground v.1.15,2013-04-10 03:20:00,
2013-04-09 22:27:00,69.1,65.4,30.09,SE,130,1.0,-999.0,88,0.00,,,0.00,0,Wunderground v.1.15,2013-04-10 03:27:00,
2013-04-09 22:32:00,69.0,65.3,30.09,SSE,162,1.0,-999.0,88,0.00,,,0.00,0,Wunderground v.1.15,2013-04-10 03:32:00,
2013-04-09 22:38:00,69.0,65.3,30.10,SSE,148,1.0,-999.0,88,0.00,,,0.00,0,Wunderground v.1.15,2013-04-10 03:38:00,
2013-04-09 22:44:00,68.9,65.2,30.09,SE,129,1.0,-999.0,88,0.00,,,0.00,0,Wunderground v.1.15,2013-04-10 03:44:00,
2013-04-09 22:50:00,68.9,65.2,30.09,South,186,0.0,-999.0,88,0.00,,,0.00,0,Wunderground v.1.15,2013-04-10 03:50:00,
2013-04-09 22:56:00,68.9,65.2,30.09,SE,128,0.0,-999.0,88,0.00,,,0.00,0,Wunderground v.1.15,2013-04-10 03:56:00,
2013-04-09 23:00:00,68.9,65.5,30.09,SE,136,0.0,-999.0,89,0.00,,,0.00,0,Wunderground v.1.15,2013-04-10 04:00:00,
2013-04-09 23:02:00,68.8,65.4,30.09,NNW,348,0.0,-999.0,89,0.00,,,0.00,0,Wunderground v.1.15,2013-04-10 04:02:00,
2013-04-09 23:08:00,68.8,65.4,30.09,South,176,0.0,-999.0,89,0.00,,,0.00,0,Wunderground v.1.15,2013-04-10 04:08:00,
2013-04-09 23:12:00,68.7,65.3,30.09,SE,133,0.0,-999.0,89,0.00,,,0.00,0,Wunderground v.1.15,2013-04-10 04:12:00,
2013-04-09 23:18:00,68.7,65.3,30.09,South,169,0.0,-999.0,89,0.00,,,0.00,0,Wunderground v.1.15,2013-04-10 04:18:00,
2013-04-09 23:24:00,68.6,65.2,30.08,South,169,0.0,-999.0,89,0.00,,,0.00,0,Wunderground v.1.15,2013-04-10 04:24:00,
2013-04-09 23:30:00,68.5,65.1,30.08,South,190,0.0,-999.0,89,0.00,,,0.00,0,Wunderground v.1.15,2013-04-10 04:30:00,
2013-04-09 23:36:00,68.5,65.1,30.08,SE,140,0.0,-999.0,89,0.00,,,0.00,0,Wunderground v.1.15,2013-04-10 04:36:00,
2013-04-09 23:42:00,68.4,65.0,30.08,SSE,155,0.0,-999.0,89,0.00,,,0.00,0,Wunderground v.1.15,2013-04-10 04:42:00,
2013-04-09 23:48:00,68.4,65.0,30.08,SSE,155,0.0,-999.0,89,0.00,,,0.00,0,Wunderground v.1.15,2013-04-10 04:48:00,
2013-04-09 23:54:00,68.3,65.3,30.08,East,100,0.0,-999.0,90,0.00,,,0.00,0,Wunderground v.1.15,2013-04-10 04:54:00,